Location: Vihti�l�
(61.3833°N, 23.0667°E)
Time: 05:47:46
(UTC+00:00)

NOSS 2-3 (E) - Pass Details

Date: 29 November 2020
Orbit: 565 x 1646 km, 63.4° (Epoch: 21 January)

Event Time Altitude Azimuth Distance (km) Brightness Sun altitude
Exits shadow 04:46:08 23° 291° (WNW) 1,737 5.2 -15.3°
Maximum altitude 04:49:51 86° 206° (SSW) 977 4.5 -14.9°
Drops below altitude 10° 04:57:14 10° 117° (ESE) 3,136 8.6 -14.1°
Sets 05:00:23 0° 117° (ESE) 4,270 9.8 -13.7°
